TimeEST,TemperatureF,Dew PointF,Humidity,Sea Level PressureIn,VisibilityMPH,Wind Direction,Wind SpeedMPH,Gust SpeedMPH,PrecipitationIn,Events,Conditions,WindDirDegrees,DateUTC
12:54 AM,-9.9,-17.0,71,30.21,10.0,East,4.6,-,N/A,,Clear,100,2013-01-24 05:54:00
1:54 AM,-9.0,-17.0,68,30.21,10.0,East,3.5,-,N/A,,Clear,80,2013-01-24 06:54:00
2:54 AM,-9.0,-17.0,68,30.21,10.0,ENE,4.6,-,N/A,,Clear,70,2013-01-24 07:54:00
3:54 AM,-9.9,-16.1,74,30.20,10.0,East,4.6,-,N/A,,Clear,90,2013-01-24 08:54:00
4:54 AM,-9.0,-16.1,71,30.20,10.0,ENE,5.8,-,N/A,,Clear,70,2013-01-24 09:54:00
5:54 AM,-9.9,-17.0,71,30.21,10.0,East,4.6,-,N/A,,Clear,80,2013-01-24 10:54:00
6:54 AM,-11.0,-18.0,71,30.23,10.0,Calm,Calm,-,N/A,,Partly Cloudy,0,2013-01-24 11:54:00
7:54 AM,-11.0,-17.0,75,30.24,10.0,Calm,Calm,-,N/A,,Scattered Clouds,0,2013-01-24 12:54:00
8:54 AM,-7.1,-14.1,72,30.26,10.0,Calm,Calm,-,N/A,,Partly Cloudy,0,2013-01-24 13:54:00
9:54 AM,-0.9,-11.9,60,30.27,10.0,Calm,Calm,-,N/A,,Partly Cloudy,0,2013-01-24 14:54:00
10:54 AM,3.0,-11.9,50,30.27,10.0,NNW,6.9,-,N/A,,Scattered Clouds,330,2013-01-24 15:54:00
11:54 AM,6.1,-14.1,39,30.24,10.0,WNW,11.5,-,N/A,,Scattered Clouds,290,2013-01-24 16:54:00
12:54 PM,9.0,-11.9,38,30.20,10.0,West,11.5,20.7,N/A,,Partly Cloudy,280,2013-01-24 17:54:00
1:54 PM,10.9,-11.9,35,30.18,10.0,WNW,13.8,21.9,N/A,,Partly Cloudy,300,2013-01-24 18:54:00
2:54 PM,10.0,-9.9,40,30.21,10.0,NNW,16.1,-,N/A,,Mostly Cloudy,340,2013-01-24 19:54:00
3:54 PM,10.0,-11.0,38,30.23,10.0,NNW,21.9,29.9,N/A,,Overcast,330,2013-01-24 20:54:00
4:54 PM,8.1,-9.9,44,30.27,10.0,NW,13.8,-,N/A,,Overcast,320,2013-01-24 21:54:00
5:54 PM,7.0,-11.0,44,30.30,10.0,WNW,16.1,27.6,N/A,,Overcast,300,2013-01-24 22:54:00
6:54 PM,8.1,-9.9,44,30.32,10.0,NW,16.1,21.9,N/A,,Overcast,310,2013-01-24 23:54:00
7:54 PM,7.0,-9.0,48,30.34,10.0,NW,9.2,-,N/A,,Overcast,310,2013-01-25 00:54:00
8:54 PM,7.0,-9.0,48,30.34,10.0,NNW,10.4,-,N/A,,Overcast,330,2013-01-25 01:54:00
9:54 PM,5.0,-9.9,50,30.37,10.0,NW,12.7,-,N/A,,Overcast,320,2013-01-25 02:54:00
10:54 PM,5.0,-9.9,50,30.38,10.0,NW,13.8,23.0,N/A,,Mostly Cloudy,310,2013-01-25 03:54:00
11:54 PM,5.0,-9.0,52,30.39,10.0,NNW,9.2,18.4,N/A,,Overcast,340,2013-01-25 04:54:00